Theta_e
306 305 306 305 304 305 305 304 304 304 306 309 310 314 321 319 316 319 320 319 322 327 325 324 327 327 326 328 327 327 327 325 325 325 324 325 324 325 327 327 329 329 328 328 329 325 323 324 325 324 325 328 327 327 326 326 327 327 326 326 328 330 327 316 313 322 327 329 330 329 329 330 327 326 330 328 325 322 319 319 319 316 314 314 314 311 317
305 305 306 306 305 304 305 304 304 304 306 307 309 316 318 318 319 319 321 322 323 327 328 328 327 327 326 327 326 325 325 323 325 324 322 323 324 324 327 327 328 328 328 329 330 326 321 323 326 326 327 331 331 327 325 326 326 324 327 331 327 323 323 318 314 316 319 320 324 324 325 327 325 326 329 328 328 328 327 326 324 317 313 315 315 311 316
304 304 305 305 305 304 304 304 303 304 306 307 310 316 318 321 322 320 321 324 324 326 327 327 327 328 328 327 325 325 323 322 323 324 323 323 324 324 326 326 327 327 326 327 329 329 325 323 328 329 327 332 332 330 328 329 325 325 336 341 328 322 327 323 313 312 314 314 315 316 319 325 324 326 329 329 330 328 324 321 317 314 316 317 314 312 318
304 304 305 306 305 304 305 304 303 304 306 307 310 316 319 322 325 322 320 322 323 324 325 325 326 327 328 327 325 323 324 324 324 323 323 324 323 324 325 325 327 326 327 327 328 330 328 326 328 330 330 331 333 334 334 329 330 343 349 341 330 330 334 329 319 315 315 315 319 324 325 322 319 322 326 328 329 329 326 319 314 317 320 317 318 320 319
305 304 305 306 305 304 305 304 303 305 307 308 310 317 320 322 325 324 324 323 322 324 325 325 325 326 326 326 326 324 324 324 324 324 324 324 325 325 325 325 327 327 327 328 327 328 330 329 329 329 330 332 333 335 338 334 341 352 345 331 333 333 327 329 328 323 323 326 329 332 329 322 320 321 324 327 329 329 325 318 319 327 320 312 325 333 322
305 305 305 305 305 304 305 305 303 305 308 309 312 319 319 322 323 321 322 325 325 325 326 326 326 324 324 325 325 325 324 325 327 327 325 325 327 327 327 326 328 329 329 329 328 329 330 329 330 333 333 333 333 335 339 339 343 347 334 326 337 331 321 326 328 325 329 334 332 331 329 326 325 326 325 326 328 326 323 322 327 332 320 315 332 340 328
305 305 305 305 305 305 305 305 304 304 309 311 314 318 318 319 320 319 319 323 326 326 324 325 325 325 327 328 326 326 326 326 327 327 327 328 328 329 330 329 329 330 330 330 333 335 330 328 335 340 337 335 333 332 334 334 338 340 330 331 339 330 325 334 331 323 328 332 331 332 329 326 325 326 327 328 328 327 326 326 330 333 326 326 336 338 335
305 305 305 305 305 305 305 305 304 304 309 313 314 315 316 317 318 318 319 323 324 324 323 324 324 326 328 328 326 326 327 327 327 327 328 331 331 329 330 332 330 329 330 332 335 337 333 333 339 340 338 338 337 334 333 332 333 333 331 334 335 329 329 339 332 322 324 330 331 330 329 326 324 324 329 330 327 327 327 327 331 332 330 333 335 331 333
305 305 305 305 305 305 305 306 305 304 308 313 313 312 313 315 316 315 320 324 323 323 324 324 324 325 326 327 327 326 326 326 327 327 326 328 330 329 329 330 330 330 332 333 332 330 329 332 332 332 333 334 335 334 333 332 332 332 331 334 334 331 333 338 331 318 318 326 328 327 328 327 322 322 327 327 325 326 327 329 333 330 329 332 329 324 328
305 305 306 305 305 305 306 306 305 304 307 311 312 311 311 313 315 314 318 323 320 320 323 324 325 325 325 325 325 325 324 324 325 328 326 325 327 327 327 329 330 332 333 332 328 325 325 327 327 327 328 328 329 330 330 330 331 334 334 333 334 334 333 332 325 316 316 324 327 325 324 320 317 321 328 328 328 328 328 331 335 334 331 328 324 324 329
305 305 306 305 305 305 305 306 305 305 307 309 311 311 310 311 313 314 318 321 318 317 321 323 325 323 322 322 323 323 324 323 324 328 328 325 325 326 326 328 331 334 332 327 324 323 323 324 324 325 326 327 328 329 328 329 330 333 335 334 335 338 334 330 326 318 315 323 327 324 319 315 318 329 333 331 331 330 328 329 333 335 333 329 328 329 332
305 305 305 306 306 306 305 306 305 304 305 307 309 311 310 310 312 315 318 319 315 315 319 322 322 321 320 320 321 321 322 321 322 324 325 325 325 325 326 327 330 332 327 323 322 323 324 325 326 328 328 328 329 329 328 329 330 331 331 333 335 336 332 331 329 320 318 324 324 318 315 319 328 337 336 333 332 332 331 332 332 332 332 331 331 331 331
305 305 305 306 306 306 305 306 306 304 305 306 309 310 310 310 312 314 316 317 315 314 317 318 317 317 318 318 319 319 319 319 320 321 323 324 325 326 325 326 326 325 322 321 323 326 330 332 332 332 333 331 330 329 329 329 331 330 330 331 334 337 333 330 328 324 322 321 317 316 320 330 337 337 335 333 334 333 330 328 331 332 332 333 333 332 331
305 305 305 305 306 306 306 306 306 305 304 306 308 309 309 310 311 313 314 317 315 311 313 317 316 316 316 316 316 317 317 318 320 321 323 323 323 324 324 322 322 321 320 323 328 332 335 334 330 328 330 330 327 327 328 330 329 330 331 332 333 336 335 329 323 325 324 316 313 318 324 328 332 334 335 334 332 334 329 325 328 333 332 332 333 332 330
304 304 305 306 306 306 306 306 306 305 304 305 308 309 309 309 310 312 314 316 315 311 313 317 316 314 315 314 315 317 318 319 320 320 321 321 321 323 321 320 321 320 321 326 330 333 334 330 323 319 321 322 320 322 327 329 328 328 331 332 332 335 339 335 324 323 324 316 314 318 318 318 325 331 335 334 329 332 333 326 326 331 332 331 331 331 330
303 304 305 305 306 306 306 305 306 305 304 305 308 309 308 308 309 311 313 314 315 314 315 315 313 312 312 313 314 316 318 319 319 318 321 323 323 322 319 318 321 322 324 328 331 332 333 328 322 318 319 321 320 319 323 326 325 327 329 331 332 333 338 339 327 321 322 318 315 316 315 317 326 333 336 334 330 332 332 324 321 328 332 331 329 330 331
303 304 305 305 305 306 306 305 306 306 304 305 307 308 308 307 307 310 312 313 313 313 313 312 311 312 313 314 316 317 317 318 319 320 322 324 322 319 317 319 322 323 324 329 331 331 329 327 324 320 321 326 324 320 321 322 319 323 327 329 331 331 333 333 323 317 319 318 315 315 316 322 333 335 333 330 331 331 327 318 319 328 332 331 329 329 330
302 303 304 305 305 306 306 306 305 306 305 304 306 308 307 306 306 308 311 312 312 312 311 311 312 314 314 313 314 315 315 317 318 318 319 321 320 317 315 318 323 325 326 329 332 329 327 326 326 321 322 329 329 323 323 322 318 321 327 328 328 329 328 327 321 316 317 318 315 314 318 329 338 333 329 330 331 327 320 318 325 332 331 330 330 329 328
301 302 303 305 305 305 306 306 305 305 305 304 305 308 307 306 305 307 310 311 311 311 311 310 310 311 311 310 311 313 313 314 315 315 317 320 319 316 315 318 322 324 326 330 332 330 326 326 329 327 323 326 329 327 326 326 324 326 330 327 324 325 325 324 321 318 316 318 317 315 319 331 335 330 329 330 326 321 322 329 335 334 330 331 331 329 328
302 301 303 304 305 305 305 306 306 306 305 304 305 307 307 306 305 306 308 310 310 310 310 309 308 310 310 310 311 313 313 313 314 314 315 317 316 315 319 323 323 325 329 331 330 330 327 325 330 331 325 325 330 328 326 328 329 330 332 329 326 326 322 318 320 322 319 318 318 317 320 330 333 329 332 330 327 329 335 339 338 333 330 332 331 331 332
302 302 302 303 305 305 305 306 306 305 305 303 304 306 307 307 306 306 307 308 308 311 311 311 310 310 309 310 311 311 312 312 312 312 312 313 314 317 322 324 322 324 328 327 328 329 328 329 332 330 327 330 331 326 323 325 327 330 333 334 332 331 325 319 321 326 322 316 318 323 328 332 331 330 333 332 332 338 342 339 336 334 333 334 333 333 338
302 302 302 302 304 304 305 306 306 306 305 303 304 306 307 307 306 306 306 307 308 310 310 310 309 308 308 308 309 308 309 310 310 310 310 311 315 317 320 321 321 321 321 322 326 327 326 329 332 330 330 331 329 329 328 325 323 327 332 330 329 332 333 328 328 332 328 323 327 332 334 333 331 330 333 333 332 334 335 335 335 335 332 334 335 335 339
302 301 301 302 303 304 305 305 305 306 305 303 304 306 306 306 306 306 307 308 308 310 310 309 308 308 308 308 308 308 308 308 309 309 308 310 314 317 318 318 319 319 318 318 321 323 324 327 329 330 332 332 329 330 330 324 324 329 331 328 327 330 333 333 334 334 332 331 333 333 332 331 332 330 331 330 330 331 332 334 336 336 334 334 336 336 340
302 302 301 301 302 303 304 305 306 306 305 303 304 305 305 305 306 305 307 309 309 311 311 309 308 310 310 309 309 308 308 307 308 309 308 310 314 317 318 316 315 317 319 317 316 317 320 323 325 327 331 332 330 329 327 324 327 331 329 327 329 328 327 331 334 330 327 328 333 332 329 330 331 330 330 329 329 330 332 334 337 338 337 337 338 339 341
302 302 301 302 303 303 304 305 306 306 305 303 304 305 305 305 306 305 307 309 309 310 312 310 308 308 308 307 307 307 308 308 309 309 309 310 312 315 316 314 313 315 317 315 315 317 320 322 324 325 327 327 327 329 330 327 328 329 328 328 329 329 327 329 331 330 327 329 332 330 328 330 330 329 328 327 327 328 331 332 335 338 337 338 339 341 342
302 302 302 302 302 303 303 304 305 305 304 304 304 305 305 306 306 306 307 308 308 309 311 311 308 307 307 307 307 307 308 308 307 307 309 310 311 311 312 313 313 314 315 315 315 316 319 321 322 324 326 326 324 327 329 328 327 327 328 328 328 327 327 327 329 329 329 330 331 329 327 330 330 328 326 325 324 327 331 332 333 336 335 337 338 340 340
302 302 302 302 302 303 303 304 305 305 304 303 304 305 306 306 306 306 307 308 309 310 311 310 308 308 307 306 306 307 307 307 307 307 308 308 308 310 311 312 313 314 314 315 316 317 319 321 322 322 323 322 321 323 325 325 326 327 327 327 325 326 329 329 328 328 327 329 329 329 328 330 330 328 325 324 324 328 332 332 333 334 335 337 339 339 339
303 302 302 302 302 303 304 304 304 304 304 303 304 305 306 306 306 306 306 306 308 310 310 309 309 309 308 307 306 307 307 307 307 308 308 308 308 309 310 311 312 313 313 315 316 318 319 320 321 321 321 321 321 323 323 323 324 324 326 326 325 325 327 327 326 326 326 326 327 327 327 328 327 326 323 324 326 329 330 331 333 333 335 337 340 339 339
303 302 302 302 302 303 304 304 304 304 303 304 305 306 306 306 306 306 306 306 306 308 309 309 311 311 309 307 307 308 308 308 308 308 308 309 308 309 310 310 310 311 312 313 315 316 317 318 318 318 319 319 320 322 323 324 324 325 325 325 323 323 323 323 322 323 324 323 322 323 324 324 324 324 324 325 328 329 327 328 330 331 333 336 338 339 340
303 302 302 302 302 303 303 304 304 304 303 304 305 305 306 306 306 306 306 306 306 307 308 310 311 310 308 307 308 309 309 309 309 309 309 309 309 309 309 310 310 310 311 312 314 315 315 316 316 316 316 316 317 320 322 322 323 324 323 321 320 319 319 320 320 320 320 320 321 322 322 322 323 324 325 327 329 327 326 325 328 330 331 333 336 339 340
303 302 302 302 303 303 303 304 304 304 304 305 305 305 305 307 307 307 306 306 306 307 308 309 311 310 307 307 308 308 309 310 311 311 311 310 310 310 309 309 309 310 311 312 313 313 313 314 314 314 314 315 315 316 318 319 320 322 320 318 318 317 318 318 318 317 317 318 319 319 320 321 322 324 325 325 324 324 325 325 326 329 332 334 336 338 337
303 302 302 302 303 303 303 304 304 304 305 306 305 305 305 306 305 304 305 305 307 308 308 309 311 311 308 308 307 307 308 310 311 311 311 311 310 310 310 309 309 310 310 311 312 313 313 314 313 313 314 315 314 315 315 315 316 318 318 317 317 317 316 316 316 315 316 316 317 318 318 320 322 323 323 323 323 323 325 326 326 329 332 334 336 336 334
302 302 301 302 302 303 303 304 304 304 305 305 304 304 304 303 302 303 304 306 307 308 307 309 311 311 309 308 307 307 308 310 311 312 312 312 311 311 310 309 310 310 310 310 312 312 312 313 313 313 313 314 315 315 315 315 315 315 316 316 316 316 316 316 315 316 316 317 317 318 319 321 322 322 322 323 323 324 325 326 326 327 329 332 333 333 330
302 302 301 302 302 303 304 304 304 304 304 305 305 305 305 304 302 302 304 306 307 307 307 309 311 311 309 308 308 307 308 309 311 312 312 311 311 313 313 311 310 311 311 310 311 312 311 312 313 313 313 314 314 314 314 314 314 314 314 314 315 315 316 315 316 317 317 318 319 320 321 321 322 321 322 322 322 323 324 325 326 326 327 329 330 331 331
302 301 302 302 302 303 304 304 304 305 305 305 305 306 305 304 303 303 304 306 307 307 308 309 310 311 309 309 309 308 307 308 309 310 311 310 310 312 314 313 312 313 313 311 311 312 313 312 312 313 313 314 316 315 314 313 313 314 314 314 314 315 315 316 318 318 319 320 320 320 320 320 320 321 322 322 321 322 322 323 323 325 326 327 328 330 332
301 301 301 302 302 303 304 305 305 305 305 305 306 305 305 305 305 305 305 306 306 308 308 308 309 310 310 310 311 309 307 308 309 308 308 309 310 311 313 314 315 315 313 312 312 313 313 313 313 313 314 314 315 316 316 314 314 315 315 314 314 316 317 318 318 319 320 320 319 320 320 320 321 322 323 322 322 322 322 322 323 325 327 328 329 330 333
302 301 301 302 303 304 304 305 305 305 305 305 305 305 305 306 307 306 306 306 306 306 307 307 309 309 309 310 310 308 308 309 310 308 308 309 310 311 312 314 316 316 314 314 314 314 314 315 314 315 315 315 315 317 317 316 316 315 314 315 315 317 318 319 320 320 320 320 320 320 321 321 322 323 323 323 323 322 321 322 323 324 326 328 329 330 332
301 301 302 303 303 304 305 305 305 305 304 304 305 305 306 307 307 307 307 307 307 307 306 307 309 308 307 309 310 309 308 310 310 309 310 310 310 311 312 313 315 316 315 316 317 315 315 317 317 316 316 315 316 316 316 316 316 315 315 316 317 318 319 320 320 320 321 321 322 322 322 322 322 322 322 322 322 322 321 321 322 323 324 325 327 330 332
301 302 303 304 303 304 305 305 304 304 303 304 305 306 307 306 306 306 307 306 307 307 306 306 309 308 308 310 311 308 308 310 311 311 311 310 311 313 314 314 315 316 316 316 316 315 315 317 318 318 318 318 317 318 318 317 316 316 316 317 318 319 319 320 320 321 322 322 323 324 323 323 323 323 322 322 322 322 321 321 322 323 323 324 328 331 331
302 303 304 304 304 305 305 305 304 304 304 305 305 306 306 305 305 306 307 306 306 307 307 307 308 308 308 310 311 309 308 310 312 312 313 312 312 313 314 315 315 316 316 316 316 316 316 316 317 317 317 318 319 319 319 318 317 317 318 318 319 318 319 320 321 322 322 321 322 324 324 324 323 322 323 323 323 323 322 321 321 323 324 327 330 332 332
303 304 304 304 304 305 306 305 305 305 305 305 305 305 306 306 305 306 307 307 307 307 307 307 308 308 308 308 310 310 310 310 310 311 312 313 313 313 314 315 315 315 316 316 316 316 317 316 316 316 316 318 319 320 318 318 318 318 318 318 317 318 318 319 320 320 321 322 322 324 325 324 323 323 323 324 324 325 325 322 322 324 326 329 331 332 332
303 304 304 305 305 306 305 305 306 305 305 305 305 304 305 306 306 306 306 307 308 307 307 308 309 309 309 308 309 310 311 311 311 311 312 314 314 314 314 315 315 315 316 316 316 315 315 316 316 316 317 319 319 317 316 317 317 317 317 317 317 318 318 318 318 319 320 322 323 324 325 325 325 325 326 327 327 327 328 326 326 327 329 331 331 331 330
303 303 304 305 305 305 305 304 305 305 304 304 304 305 305 306 306 306 306 307 307 307 308 308 308 308 309 309 309 310 311 311 312 312 313 313 313 313 313 313 314 315 315 315 315 315 315 316 316 316 317 318 317 316 316 316 316 316 317 318 318 319 320 320 321 321 321 322 323 323 324 325 326 326 327 327 327 327 328 328 328 329 330 330 329 329 329
303 303 304 305 304 304 304 305 305 305 305 304 304 306 306 305 305 306 307 307 307 307 308 308 308 309 310 310 310 310 311 312 312 313 313 313 313 313 313 313 314 314 314 314 315 315 315 315 315 316 316 316 315 315 315 316 317 318 318 319 320 320 321 321 322 321 321 322 323 323 323 325 326 327 327 327 326 326 328 330 330 330 329 329 328 328 328
303 302 302 303 303 303 304 305 304 304 305 305 304 305 305 305 305 306 307 307 307 308 308 308 308 309 311 311 311 311 312 313 313 313 313 313 313 313 313 313 313 313 313 314 315 315 315 316 315 315 316 316 316 316 316 317 318 318 318 318 319 319 320 321 322 322 321 322 322 323 323 324 326 327 327 328 327 328 329 330 330 328 328 328 327 327 327
303 301 302 303 303 302 303 305 304 304 305 305 304 304 305 305 305 306 306 307 307 308 308 308 309 310 310 311 311 312 312 312 312 313 313 312 312 313 312 312 313 313 313 314 315 315 315 315 314 315 316 317 316 316 317 317 317 317 317 318 318 317 319 321 322 322 322 323 323 323 324 325 325 326 326 327 327 328 328 328 327 327 326 326 326 326 326
302 301 302 303 303 302 302 304 305 305 304 305 305 305 305 305 305 306 306 306 307 308 308 309 309 310 310 311 312 312 312 312 312 312 312 312 312 313 313 313 313 313 314 315 315 315 315 315 316 317 317 317 315 315 315 316 316 316 317 317 317 317 318 320 321 322 323 324 324 323 324 325 325 325 326 327 327 327 326 325 324 324 324 323 323 323 324
302 302 302 303 303 303 303 303 305 305 305 305 305 305 304 305 305 306 306 306 308 309 309 309 310 310 311 311 311 311 311 311 311 312 312 312 312 312 312 313 313 313 314 314 315 315 315 316 317 317 315 314 314 314 314 315 315 316 316 316 317 318 319 321 322 323 325 326 325 325 325 326 326 326 327 327 327 325 325 324 323 323 322 322 322 322 323
302 302 303 303 303 303 303 303 304 305 305 305 304 304 304 305 305 306 306 308 310 311 310 310 310 310 311 310 309 310 311 311 311 311 311 311 312 312 312 313 314 315 315 314 315 316 316 316 316 315 314 313 313 314 314 315 315 315 315 316 318 319 320 321 323 324 325 326 326 326 327 327 326 326 327 326 325 324 324 324 324 324 323 323 322 323 324
301 302 303 304 303 303 303 303 304 305 305 304 304 305 305 305 306 307 308 310 311 310 309 309 309 309 309 308 308 308 309 310 310 310 310 311 311 312 312 313 315 315 314 315 316 317 316 316 316 315 315 314 314 314 314 314 315 315 316 317 319 320 321 322 323 324 325 325 325 325 325 325 325 326 326 326 324 324 325 324 324 324 323 323 323 324 324
301 302 303 304 304 304 303 303 304 305 305 304 304 305 305 305 305 307 309 310 310 308 308 309 309 308 307 308 308 308 309 310 310 311 311 312 312 312 314 314 315 314 315 317 317 316 316 316 316 316 316 315 315 315 315 315 316 317 318 319 320 321 321 322 322 323 324 325 325 323 323 323 324 324 324 324 324 324 324 324 324 324 324 324 324 324 324
301 302 303 304 304 304 304 304 304 305 305 305 304 305 305 305 306 307 309 309 308 307 308 309 308 307 307 308 309 310 311 311 312 313 313 313 312 313 314 314 315 316 317 318 318 317 316 316 317 317 317 317 317 317 317 317 317 318 318 319 320 321 321 322 322 323 323 323 323 323 323 323 323 323 323 324 324 324 324 324 324 324 324 325 324 324 324
Wind_Speed
24 25 27 30 33 34 34 36 37 41 40 28 19 14 6 4 4 1 2 2 5 6 7 7 6 8 3 2 3 3 3 5 5 4 5 5 5 5 6 6 6 5 3 3 7 11 10 10 11 10 11 10 4 6 6 8 11 10 10 11 7 3 6 9 7 4 4 5 5 3 1 3 7 8 9 9 9 10 7 3 2 4 4 4 5 7 3
25 25 26 29 32 33 34 35 35 38 36 24 15 10 4 4 5 2 1 2 5 6 6 6 8 8 4 3 6 5 4 5 5 5 4 4 4 5 6 5 4 3 2 3 6 8 6 8 9 7 9 5 5 7 9 8 10 10 6 6 7 6 7 9 7 6 6 5 5 6 5 6 9 10 11 12 11 9 5 1 2 5 7 7 6 7 3
24 24 26 28 31 32 33 35 35 35 33 22 10 6 4 4 3 3 3 4 6 6 3 3 6 7 7 7 7 6 4 2 2 4 4 3 5 6 4 3 4 4 3 3 4 4 3 5 5 3 5 5 4 4 7 6 10 8 1 2 8 8 7 8 9 9 10 9 8 9 8 8 10 11 12 14 14 12 8 5 5 6 6 7 7 8 4
22 24 26 28 31 32 33 35 35 32 29 21 10 6 5 4 2 2 3 4 5 4 3 4 5 4 6 6 5 6 6 3 2 3 4 2 4 6 5 5 6 5 6 6 7 7 4 2 4 6 7 6 4 3 4 7 8 3 4 2 8 5 5 10 11 11 10 9 7 10 11 11 12 15 16 16 17 16 11 8 7 5 4 6 8 9 9
21 24 25 27 30 32 33 35 34 30 24 18 10 6 4 3 2 1 0 2 4 4 3 3 4 3 3 3 2 4 6 4 3 3 2 0 3 5 5 5 6 4 6 7 7 8 6 4 5 7 6 5 6 4 4 7 6 3 3 8 7 3 6 12 14 14 11 6 4 8 13 14 14 17 17 16 17 16 14 11 7 4 5 7 5 7 11
21 23 25 26 29 31 33 34 34 29 20 13 8 4 2 2 2 2 2 2 2 2 0 2 3 3 3 2 1 3 5 4 2 2 1 1 2 3 5 4 3 3 3 5 6 8 8 7 6 5 4 5 7 7 5 6 7 6 8 9 6 5 9 11 14 15 10 4 4 7 11 12 13 15 15 16 17 16 16 15 10 6 8 9 2 6 9
20 21 23 25 27 30 32 33 34 28 17 8 6 4 2 2 1 2 2 3 2 2 3 4 3 3 2 2 2 3 3 1 1 1 2 3 1 3 3 2 4 5 4 5 4 5 4 6 4 1 2 6 7 7 6 5 7 8 8 7 4 5 5 6 10 12 8 5 6 8 10 11 12 14 14 15 17 17 17 15 11 9 11 10 4 4 8
20 20 21 24 26 28 30 33 33 28 17 9 6 5 4 3 3 3 3 2 2 3 2 3 3 3 2 2 2 2 1 1 2 2 2 1 2 5 4 4 7 5 2 3 1 4 5 2 1 5 2 3 3 4 3 3 6 9 7 6 5 4 3 3 7 9 7 6 7 8 10 11 11 12 12 14 14 14 14 12 8 8 9 8 8 8 9
19 19 20 22 24 25 28 31 31 27 20 11 7 6 7 5 2 3 5 2 1 2 1 2 3 3 2 2 1 1 1 3 2 1 3 5 5 6 7 6 6 1 3 4 5 7 8 6 5 6 5 3 3 1 1 4 2 8 7 6 6 6 3 3 7 8 6 6 8 9 9 10 11 11 11 13 13 11 10 8 7 8 8 7 8 9 8
18 19 18 20 22 24 25 28 29 26 22 14 7 6 8 7 2 3 5 1 1 2 1 2 3 2 2 2 2 1 2 3 3 2 2 2 4 6 8 7 4 2 4 6 8 9 9 8 7 6 5 6 5 4 4 6 4 3 5 5 6 6 5 5 7 9 6 8 9 9 9 10 10 10 12 13 12 10 9 8 7 7 7 7 7 7 6
17 18 18 18 20 22 23 25 26 25 22 16 8 7 10 8 3 3 5 3 1 1 2 2 1 1 3 4 2 2 2 3 4 2 1 2 4 6 7 7 4 1 4 6 8 9 8 8 7 5 6 7 7 6 6 6 4 3 2 4 5 6 8 6 6 7 6 9 9 8 10 10 6 3 7 11 11 11 10 9 8 8 7 7 7 7 7
15 17 17 17 18 20 21 22 24 22 19 14 9 8 10 9 6 4 4 3 0 0 1 1 3 2 2 3 3 3 4 4 5 5 3 2 4 5 5 6 5 3 5 9 10 7 6 5 5 5 6 7 7 7 7 7 5 3 4 4 4 7 8 6 5 7 5 6 7 10 10 6 2 4 2 3 6 9 10 9 9 9 9 9 9 9 8
15 15 16 16 16 18 19 20 22 21 17 14 10 9 11 11 7 3 4 4 0 2 1 2 3 2 3 4 5 4 4 5 5 4 5 4 4 4 4 5 5 6 8 12 10 6 5 5 4 5 6 6 6 6 6 5 4 4 5 4 5 6 7 5 5 5 5 6 9 10 5 3 5 5 4 4 3 6 8 8 9 9 9 9 10 9 8
15 14 14 15 15 16 17 18 20 20 16 12 9 9 11 12 8 4 4 4 1 2 2 1 2 3 4 4 6 5 3 4 4 3 2 2 4 4 3 4 6 7 8 9 6 5 5 4 5 6 6 6 7 7 7 5 2 3 5 4 5 6 6 7 6 5 5 8 10 7 3 3 4 4 5 5 5 6 6 7 7 7 7 8 7 7 8
14 12 13 14 13 14 16 16 18 19 16 11 7 8 11 13 10 6 4 4 2 0 0 1 3 5 5 5 5 5 3 2 3 2 1 1 3 3 3 5 8 7 6 5 4 4 4 5 8 8 8 8 9 8 7 5 3 2 4 5 5 6 5 5 7 6 6 10 10 8 9 9 7 7 8 8 5 4 4 5 6 6 7 7 5 6 7
12 11 12 13 12 13 14 15 16 18 16 12 8 6 9 13 12 8 6 4 3 1 2 3 5 5 5 3 2 3 3 3 3 4 3 2 1 2 4 6 7 6 5 5 3 3 4 6 8 8 9 9 10 9 7 7 5 4 4 6 8 8 5 4 7 8 7 9 10 9 9 8 5 6 7 6 4 4 4 5 7 5 6 5 4 5 6
11 11 11 12 11 11 12 13 15 16 16 13 9 6 8 12 13 10 6 4 3 1 3 3 5 5 3 2 0 1 3 2 3 3 2 0 3 5 7 8 5 5 5 5 4 3 5 7 7 8 9 6 6 8 7 8 8 6 6 7 9 9 7 7 10 10 9 9 10 8 7 3 2 6 8 7 6 5 3 8 5 1 2 2 3 5 6
11 10 10 11 11 10 11 11 13 15 14 13 9 5 6 11 13 10 6 4 3 1 3 3 5 3 2 3 2 3 4 3 2 3 3 1 2 5 8 9 4 2 3 4 4 5 6 7 5 8 7 2 1 5 5 7 9 7 6 7 8 8 8 8 10 11 10 11 10 8 6 1 6 6 7 8 7 4 7 8 3 2 1 1 3 6 7
10 10 10 10 10 9 9 9 11 13 14 13 9 5 4 9 13 11 6 3 3 1 3 2 3 3 2 4 4 1 1 2 2 4 4 2 3 7 8 4 1 2 3 3 4 4 5 6 4 4 6 4 2 4 4 5 6 5 6 8 8 7 7 7 9 10 10 9 8 9 7 2 5 3 5 6 5 6 5 3 4 4 3 1 4 8 8
8 9 9 9 9 9 9 8 8 11 13 12 10 6 4 6 10 10 6 4 4 2 1 2 2 2 1 3 3 2 1 1 1 3 3 1 5 9 5 4 1 3 2 3 4 4 4 6 4 2 5 5 2 2 4 4 2 1 4 7 7 5 6 8 8 8 8 8 8 9 6 2 3 2 4 3 4 4 3 3 3 4 4 4 6 8 8
8 8 8 9 9 8 8 7 7 9 12 12 10 6 4 4 7 8 6 5 5 2 2 3 1 2 2 2 4 5 5 4 3 4 4 3 5 6 2 1 3 3 2 3 3 2 1 3 2 1 3 3 2 2 5 6 4 1 2 4 4 3 4 7 6 3 6 8 6 3 1 4 2 2 1 1 3 4 4 5 6 6 6 6 6 7 8
9 8 8 9 8 7 7 6 6 8 11 11 9 6 5 5 7 8 7 5 6 5 4 4 5 6 7 7 7 7 8 7 6 5 5 3 2 2 2 2 3 3 3 4 3 1 1 2 2 2 3 3 3 4 5 6 6 3 1 2 3 1 2 3 2 1 3 3 1 3 3 3 2 3 3 5 7 7 7 8 8 8 8 6 6 8 8
9 8 8 9 9 8 7 6 5 6 9 10 8 6 7 7 9 10 8 6 7 8 7 6 6 6 6 5 4 5 6 7 7 7 6 4 2 0 1 3 3 2 3 3 3 3 3 3 3 3 2 2 2 4 5 5 6 4 3 1 1 3 2 2 2 1 1 0 3 3 1 2 2 2 3 6 7 7 7 8 8 9 9 8 8 9 8
9 9 8 8 9 9 8 6 5 5 7 9 8 6 7 8 9 10 8 5 4 4 4 4 3 1 2 2 1 3 4 5 6 6 6 6 4 1 3 4 4 2 3 5 5 4 4 3 2 2 2 2 3 4 5 5 3 1 3 3 3 3 2 3 1 1 2 3 2 3 3 3 4 4 4 6 8 8 8 8 8 8 10 10 9 9 8
9 8 7 7 8 9 8 6 4 4 5 7 7 6 7 7 7 8 7 3 3 3 2 2 2 2 2 0 3 4 3 4 4 4 6 7 6 4 3 6 5 3 3 5 5 4 3 3 2 3 2 2 2 3 3 2 0 1 2 3 3 2 3 3 3 2 2 1 3 5 5 1 5 5 6 7 10 12 11 10 9 9 10 10 8 7 7
10 8 8 8 8 9 8 6 5 4 4 5 6 6 6 6 5 5 5 4 4 3 3 0 4 4 2 3 3 2 3 5 5 5 7 8 8 7 6 6 5 4 4 5 4 3 3 3 2 3 2 2 2 3 2 2 2 2 2 1 2 1 2 1 2 3 4 3 2 7 6 6 5 6 9 9 11 13 13 12 11 10 10 9 8 7 6
10 8 8 8 8 8 8 7 6 4 3 5 6 5 5 4 3 3 5 5 3 2 2 1 3 3 2 3 1 2 4 6 6 6 7 8 8 8 6 5 4 4 4 4 3 2 3 3 2 2 1 2 3 4 2 2 3 3 3 1 0 3 4 1 3 6 5 1 3 6 4 5 2 7 11 12 13 13 13 12 11 11 10 8 7 6 5
9 8 8 8 7 7 7 7 6 4 3 4 5 4 3 2 1 2 4 5 5 3 3 4 3 2 2 1 2 3 4 5 6 7 7 7 8 8 7 5 4 3 3 3 2 2 3 3 2 1 2 2 2 3 3 2 3 5 5 3 1 2 2 2 3 5 3 4 6 5 3 6 7 9 11 12 11 11 12 12 11 11 10 8 7 7 7
8 8 8 7 7 7 6 6 5 3 2 3 3 4 3 3 3 1 3 5 6 5 5 4 4 3 1 1 2 2 3 4 6 7 7 7 7 7 7 5 4 4 4 3 3 3 3 3 3 2 1 2 3 3 3 4 5 5 3 1 2 3 3 4 4 4 4 5 6 5 5 7 10 12 13 10 7 9 12 12 11 11 10 9 9 8 9
8 8 8 7 7 6 6 5 5 3 2 3 4 4 4 4 5 4 2 5 7 6 4 4 2 0 1 1 1 2 2 3 5 6 7 7 7 7 6 5 4 4 3 3 3 3 3 3 3 4 2 2 3 4 3 4 6 3 3 2 2 3 3 3 4 4 6 7 8 7 7 8 9 11 10 7 6 10 12 12 11 11 10 9 10 8 8
8 7 7 7 7 6 5 5 5 4 3 4 4 3 2 1 3 2 4 6 7 6 5 4 3 1 2 2 2 3 4 3 3 4 5 6 6 6 6 5 3 4 4 3 3 3 4 3 4 4 3 3 4 5 4 5 7 4 4 2 1 2 3 3 4 6 7 8 9 10 10 8 7 7 7 8 10 12 12 12 13 11 9 8 9 8 8
8 7 7 7 6 6 5 5 5 5 6 6 7 6 6 5 3 4 6 7 7 6 4 3 3 2 1 3 2 2 4 4 3 3 3 4 3 4 5 5 4 3 3 4 3 3 4 5 5 5 4 3 4 5 6 6 7 6 3 2 3 4 5 6 6 7 7 7 9 11 10 8 7 7 9 11 13 13 12 13 13 11 8 7 7 10 11
8 7 7 7 6 6 5 4 5 6 7 8 10 10 9 9 8 8 7 6 6 5 3 3 3 1 1 2 3 1 3 4 3 3 2 2 2 3 4 4 3 3 4 4 3 2 3 4 4 5 5 3 3 5 6 7 9 9 7 6 6 5 7 7 7 7 6 6 6 8 9 9 10 10 11 12 12 12 12 12 13 12 9 7 8 12 13
9 7 7 7 6 6 5 5 5 5 5 8 8 6 3 5 7 6 6 5 5 3 2 3 3 1 1 3 3 2 4 3 2 1 1 2 2 3 3 4 3 3 5 5 4 3 3 4 4 5 5 4 5 6 7 9 10 10 9 8 6 6 6 6 6 6 5 6 6 7 9 10 11 11 11 11 12 13 12 11 12 12 10 9 10 11 11
9 8 7 7 6 6 5 5 5 5 6 7 6 2 2 3 3 3 4 4 4 3 2 2 3 2 2 3 3 3 3 3 1 1 1 2 2 3 2 3 3 3 3 4 4 4 4 4 5 5 5 5 6 7 7 9 10 8 7 7 6 5 7 7 6 6 7 8 9 10 10 12 12 11 11 12 12 12 12 11 11 12 11 10 10 10 10
9 8 8 7 5 5 6 6 7 6 5 4 2 1 1 2 1 1 3 3 4 3 1 1 2 2 2 1 2 3 2 2 1 0 1 1 2 2 2 3 3 2 2 3 5 5 5 4 4 6 6 6 7 7 7 8 8 8 7 7 5 5 6 7 8 9 10 10 12 12 12 12 12 11 10 11 11 11 12 12 12 11 11 11 10 9 9
10 8 7 6 5 5 6 6 7 7 5 2 1 0 1 1 2 3 3 4 3 3 2 3 2 1 2 2 1 2 2 1 1 1 2 2 1 2 2 3 2 1 2 4 6 5 4 4 4 7 7 7 7 7 6 7 7 7 7 7 6 5 6 7 8 10 11 12 13 12 11 12 12 10 10 11 12 12 12 12 11 10 10 11 11 9 10
11 9 7 6 5 5 4 5 6 7 5 3 3 2 2 2 2 3 3 2 2 2 3 3 2 0 1 1 1 2 2 1 0 1 1 1 1 2 3 3 1 0 2 4 3 3 4 4 5 7 8 8 9 10 8 7 7 7 7 7 6 5 6 6 7 9 11 11 11 10 11 12 14 13 13 13 13 13 12 11 10 10 10 10 10 9 9
10 8 7 6 5 3 2 4 7 7 5 4 4 3 2 1 2 2 2 2 1 2 3 3 2 1 2 2 2 3 2 2 2 1 1 1 1 0 1 1 1 1 4 4 2 3 4 5 5 6 7 7 8 9 8 8 8 8 7 6 4 4 5 6 7 8 9 9 10 12 12 13 14 14 13 14 14 13 13 12 11 10 10 9 7 7 8
9 7 5 5 4 2 4 6 7 7 5 4 3 2 1 2 2 1 1 2 2 2 2 2 1 1 1 2 1 3 2 2 2 1 1 1 1 1 1 1 0 1 4 4 2 2 4 5 5 6 6 5 2 2 3 5 6 5 3 3 3 4 5 6 7 8 10 10 12 12 12 13 14 14 13 14 15 14 13 12 11 10 9 8 6 6 5
9 7 4 4 5 5 6 7 6 5 3 3 2 2 1 2 2 1 1 2 3 2 2 2 2 3 2 2 1 1 2 1 1 1 1 0 1 1 3 1 1 2 5 2 1 0 4 5 5 6 5 3 2 2 1 3 3 2 2 4 6 6 7 8 9 10 11 10 10 10 12 14 15 14 14 14 14 13 12 12 11 10 9 7 5 5 7
9 7 3 4 7 8 7 5 4 3 1 1 2 2 2 1 1 2 3 2 1 2 3 2 1 2 3 1 1 1 2 1 1 1 2 0 1 2 3 1 1 3 3 2 3 2 4 5 5 4 2 2 1 1 2 3 4 5 7 9 8 8 9 10 10 11 12 11 10 10 12 14 15 15 15 14 13 11 11 9 8 7 6 4 6 9 12
9 7 5 5 6 6 5 3 2 2 1 1 1 2 2 2 2 3 3 2 1 1 3 3 1 2 3 2 0 2 2 1 1 1 1 1 1 2 3 2 2 3 2 3 3 5 5 5 6 3 3 2 2 3 5 7 7 8 9 9 9 10 11 11 11 12 13 13 12 12 13 14 16 16 16 15 14 12 9 6 4 3 3 6 8 10 12
8 4 3 3 3 3 3 2 2 2 3 3 3 4 4 4 4 4 3 3 3 3 3 3 3 3 3 2 1 1 2 1 1 1 0 0 1 2 3 3 2 3 3 3 4 6 5 5 5 4 4 4 5 6 8 8 8 8 8 8 9 11 11 10 11 11 12 12 12 13 14 14 15 15 14 13 12 10 6 5 6 8 10 11 10 11 13
6 3 1 2 2 1 1 2 1 2 3 4 4 4 3 4 4 4 2 2 2 3 3 2 3 3 2 2 1 1 1 0 1 1 0 0 1 2 2 2 3 4 4 4 5 6 5 5 5 4 4 5 7 8 9 8 8 9 9 10 11 11 10 10 10 10 9 10 11 12 12 12 11 10 9 7 6 5 5 8 11 13 15 16 15 14 13
3 2 2 2 2 1 2 2 3 3 4 4 4 3 2 2 2 3 3 2 2 3 3 2 2 2 2 2 1 1 1 0 2 1 1 1 2 1 1 2 3 4 5 6 6 6 6 6 6 5 5 7 8 10 10 10 10 11 11 11 12 12 12 11 10 9 9 9 9 10 10 10 9 7 5 4 3 5 8 10 12 13 14 14 15 14 14
3 1 2 2 3 3 3 3 3 3 2 2 3 2 2 1 2 3 3 2 2 3 3 2 1 1 1 1 0 1 1 0 2 1 1 2 3 1 1 3 4 4 5 6 6 6 6 6 7 7 8 8 11 13 14 14 14 14 13 13 13 13 13 11 11 10 10 9 8 8 8 8 7 5 4 3 4 7 10 13 13 13 13 13 11 10 9
2 2 2 2 3 4 5 5 3 2 1 2 3 3 3 3 3 3 3 2 1 2 2 3 2 1 1 1 1 1 0 0 2 1 1 1 2 1 2 4 5 4 5 6 7 7 7 7 7 8 9 12 15 16 15 15 16 16 15 14 13 13 12 10 9 9 9 7 6 6 6 5 4 3 3 6 7 8 10 12 13 13 13 12 10 9 8
0 2 2 1 2 3 4 4 3 2 2 3 3 3 4 4 3 3 3 2 2 2 1 1 0 0 1 1 1 2 1 1 2 1 1 2 3 3 3 5 6 5 5 5 6 7 7 7 7 8 11 14 16 16 15 15 15 15 14 13 12 12 11 10 8 8 8 6 5 5 4 2 1 1 3 5 7 8 10 11 11 11 10 9 8 8 9
1 2 2 2 2 3 4 4 3 3 3 4 4 4 4 4 3 3 2 2 2 2 2 1 1 0 0 0 1 2 2 2 2 2 2 4 4 3 4 7 7 6 5 6 6 7 7 7 8 9 12 15 16 16 15 15 15 13 12 12 12 11 11 10 9 8 8 6 3 2 2 2 3 2 2 4 5 6 8 9 9 8 7 7 7 8 8
2 2 2 2 1 1 3 3 3 2 2 3 3 3 3 3 3 3 2 2 3 2 2 1 1 0 1 1 2 1 1 1 2 3 4 4 3 4 6 7 7 6 7 7 7 8 9 10 10 10 12 13 14 13 12 12 12 11 11 12 12 10 10 10 11 10 8 6 3 2 2 2 3 3 1 3 4 5 5 6 6 6 6 7 8 8 8
2 2 2 1 0 0 1 2 2 2 2 2 2 3 2 2 3 3 3 3 3 2 1 1 1 1 2 1 1 1 1 1 3 4 4 4 3 5 6 7 6 6 7 8 8 9 10 10 9 9 9 10 10 9 8 8 9 8 8 9 9 8 7 8 7 6 5 4 4 4 3 1 1 3 3 3 4 4 4 5 5 5 6 7 8 8 8
Wind_Direction
344 345 344 344 344 345 347 350 354 355 353 349 340 327 293 270 307 56 93 240 244 250 211 178 210 223 205 311 248 206 219 224 228 234 235 248 246 243 254 254 248 239 239 245 203 196 201 202 206 208 201 203 173 135 164 186 186 197 203 190 179 185 214 220 211 169 127 108 110 135 195 235 227 223 230 236 227 227 245 267 184 204 226 230 249 266 262
345 345 343 344 344 344 347 351 354 356 356 347 327 318 307 302 303 245 224 251 226 233 220 194 208 213 209 240 226 216 239 242 240 239 240 256 259 260 264 255 252 255 267 261 217 200 200 201 205 215 207 189 93 129 170 191 199 203 203 176 170 188 208 210 209 194 180 175 174 177 184 212 225 222 221 231 234 234 237 161 177 234 240 238 257 276 271
346 345 344 345 344 344 347 351 353 355 355 347 324 301 297 290 262 220 225 204 203 231 276 257 223 211 212 226 223 214 214 211 266 270 260 268 281 279 279 284 286 275 256 241 213 211 228 202 194 205 195 164 108 149 183 213 217 207 56 107 178 194 202 200 212 212 201 206 209 202 197 203 222 227 216 214 219 220 218 210 220 235 231 225 245 273 290
346 345 345 346 345 346 350 351 352 355 354 346 320 279 288 299 252 200 189 178 201 238 294 289 260 221 210 217 214 221 219 165 116 256 245 235 283 276 272 288 282 249 227 219 198 201 228 226 187 195 192 161 128 153 193 221 223 173 67 183 193 198 202 202 220 229 221 224 216 206 211 209 211 215 209 207 213 215 217 232 239 219 195 218 227 247 274
347 346 347 347 345 348 352 350 352 356 352 341 318 270 267 297 326 3 301 183 200 207 202 257 262 237 220 217 190 222 234 213 173 203 213 124 306 273 251 266 273 241 224 224 201 190 202 211 199 202 195 149 129 142 190 209 199 131 177 214 201 199 211 206 219 231 236 244 205 195 218 225 218 215 212 208 209 210 215 229 231 183 210 247 213 203 254
348 347 346 348 348 350 352 351 354 357 353 344 321 280 273 313 341 23 334 280 204 189 180 321 278 222 213 221 217 225 228 228 205 171 206 231 333 280 218 206 287 312 298 261 211 183 192 204 199 196 193 165 155 155 156 172 173 174 201 206 198 223 219 206 215 224 224 226 200 202 224 233 230 225 215 205 202 205 214 225 222 209 245 268 173 165 243
349 347 346 350 350 351 353 354 357 0 3 1 328 314 3 344 342 43 315 298 356 4 341 319 276 217 213 209 207 233 227 203 84 40 262 213 80 336 248 169 359 335 323 299 235 177 198 207 178 111 215 202 190 181 164 153 170 186 192 184 198 241 218 193 217 221 206 194 201 211 222 227 231 228 214 202 201 204 213 224 224 227 251 267 253 220 256
348 348 349 353 352 353 356 356 359 5 15 22 7 13 22 351 354 6 308 278 348 344 327 289 241 195 218 216 171 216 237 60 64 43 324 264 74 7 334 5 356 334 308 315 6 58 7 300 59 8 292 211 209 209 189 142 174 188 188 176 184 222 214 184 211 214 195 184 190 202 216 218 217 216 205 198 200 202 213 226 220 219 242 259 265 267 269
345 348 351 354 352 355 359 357 359 11 20 19 18 33 13 335 320 322 299 279 347 314 312 280 242 190 192 210 155 157 101 38 24 114 35 15 38 23 357 352 344 316 125 64 44 27 352 321 329 332 298 298 337 271 329 358 201 186 183 182 186 202 206 171 203 217 197 177 188 192 201 209 205 200 193 191 196 202 213 219 208 217 237 245 255 263 269
346 348 352 356 355 356 -0 359 0 13 22 19 11 21 3 335 280 279 287 274 28 310 241 233 239 196 68 37 35 20 59 26 336 218 141 52 41 21 355 343 324 193 115 48 7 342 322 305 307 308 288 290 297 279 292 311 289 210 185 192 191 199 201 179 207 227 190 169 191 188 188 210 213 200 195 197 203 211 215 214 210 221 240 248 254 266 291
347 347 351 357 357 357 360 0 2 12 22 17 2 8 4 344 314 297 282 244 94 320 255 239 239 118 40 21 358 337 355 -0 347 343 143 97 34 8 351 339 324 106 69 13 335 314 302 293 288 278 265 265 265 271 275 265 265 277 239 214 191 201 218 206 210 234 192 163 178 194 209 225 227 197 204 208 213 219 222 225 219 211 221 244 265 280 293
345 347 350 354 356 358 360 359 2 11 19 12 355 360 2 340 309 299 297 279 81 336 255 62 43 25 11 357 336 334 337 338 350 348 326 337 355 352 358 351 342 27 12 334 316 300 275 255 245 236 239 246 246 250 251 233 219 231 252 249 212 204 219 214 211 234 214 158 180 219 233 229 145 92 120 188 213 223 231 237 227 218 223 237 256 269 274
344 348 348 349 354 359 359 357 359 6 15 14 3 358 356 342 317 302 312 303 15 47 358 74 65 4 352 353 334 324 325 323 318 307 300 306 322 342 20 9 345 347 332 317 310 291 244 200 192 209 207 208 215 215 212 204 200 212 225 241 240 223 219 213 214 222 205 188 212 230 234 126 120 118 103 99 151 200 220 234 228 225 231 237 251 267 271
342 345 344 346 354 357 356 357 357 360 10 19 7 355 358 353 341 332 323 310 29 50 336 210 105 5 349 353 336 316 306 315 302 276 281 299 305 325 1 356 333 325 315 309 297 259 225 193 198 209 194 196 211 202 183 171 180 220 215 215 237 244 229 216 216 214 216 225 228 230 215 159 154 159 164 176 189 191 214 249 245 230 238 250 261 267 265
334 339 340 343 351 354 354 356 356 357 6 17 8 356 4 1 347 328 315 313 309 132 295 0 24 353 334 345 350 326 296 311 305 270 232 258 295 320 1 345 325 307 298 302 282 241 228 213 211 211 206 213 221 212 194 184 165 176 212 212 215 229 235 225 218 211 224 240 238 235 240 237 227 213 195 194 206 189 197 262 263 237 240 258 265 255 252
326 332 337 340 346 352 353 354 354 353 359 8 5 352 2 4 351 329 309 301 295 272 79 30 352 329 313 318 359 343 327 349 331 283 215 176 349 352 358 343 317 290 291 293 268 251 239 220 216 221 220 218 222 220 212 211 194 160 183 203 200 209 220 227 227 219 221 239 242 236 245 253 238 194 167 166 172 134 140 252 260 234 226 237 239 241 247
321 328 334 336 341 349 350 351 351 348 352 3 1 346 360 5 357 338 315 293 294 341 69 28 319 296 290 277 203 10 334 329 322 295 242 114 3 348 347 344 316 265 280 286 253 234 232 222 222 229 223 216 229 227 217 222 217 186 176 193 197 203 206 212 229 231 224 233 244 246 251 264 108 122 129 136 140 129 203 254 257 158 155 214 234 247 252
318 323 328 331 335 343 345 349 349 343 346 359 355 328 349 3 358 344 319 290 294 0 82 31 320 314 -0 338 338 2 339 313 302 298 275 269 4 345 336 342 333 245 274 288 255 234 228 221 224 233 220 164 212 230 214 222 225 207 191 200 201 205 211 219 232 234 225 227 241 248 244 115 89 113 130 130 139 187 246 261 297 4 314 226 253 267 269
318 318 322 326 330 335 337 343 349 342 341 356 357 329 333 359 359 352 333 303 301 328 87 45 313 316 5 322 300 315 321 297 313 309 274 200 20 332 306 298 301 273 288 281 253 240 231 219 217 243 227 183 180 238 223 218 228 217 206 212 214 213 215 220 230 236 233 230 238 246 240 109 79 114 134 135 196 245 264 316 345 325 302 294 268 274 277
315 315 316 320 322 327 328 335 347 339 335 351 1 338 319 353 359 356 349 332 305 294 67 63 303 306 335 304 303 323 298 260 303 321 310 0 359 327 274 187 147 309 297 273 245 230 238 229 202 225 240 211 174 252 232 210 210 214 219 224 220 215 221 224 226 236 239 232 234 245 244 92 80 143 142 162 247 285 4 355 323 331 342 327 286 276 277
304 308 311 314 315 320 321 327 341 335 332 350 3 341 318 350 357 349 342 324 294 276 64 62 351 312 313 298 309 315 308 314 338 338 327 338 347 329 284 130 359 333 346 321 270 225 269 262 206 194 248 221 154 228 231 214 191 113 341 272 221 194 235 242 229 219 240 243 238 230 111 67 37 295 269 277 302 346 351 313 312 328 327 314 295 284 279
297 299 303 306 309 310 309 316 329 327 333 352 2 339 318 336 342 336 326 300 269 266 300 316 290 281 283 281 279 275 277 289 301 304 305 310 332 330 325 6 8 8 8 333 289 264 357 309 285 267 237 208 197 217 228 231 217 180 96 275 233 117 354 287 252 190 243 276 18 83 90 55 359 327 340 334 328 335 323 305 303 299 290 286 287 286 278
293 296 296 300 304 305 303 304 310 314 329 347 357 341 326 330 334 330 317 283 258 263 272 272 263 255 251 253 257 254 257 268 270 264 268 281 291 165 68 24 8 13 23 -0 336 338 340 332 331 306 264 254 256 230 223 241 239 205 171 184 52 55 28 290 275 160 196 10 56 64 39 18 33 37 16 349 335 337 331 311 295 287 283 276 273 278 274
287 291 293 294 300 304 303 299 296 303 324 341 349 338 322 324 332 332 319 280 263 276 246 221 231 233 156 149 220 246 240 243 250 245 240 253 270 205 87 36 353 337 28 12 344 316 306 318 321 281 279 351 317 257 237 236 232 204 209 195 130 82 341 280 226 167 229 227 112 41 353 20 58 56 38 12 350 344 337 313 293 288 289 283 275 271 265
278 281 285 290 297 302 302 296 290 294 318 338 344 333 319 320 330 335 330 303 298 309 256 177 129 94 95 228 263 260 233 203 214 228 226 233 256 283 -0 9 347 329 341 336 317 291 286 306 293 258 268 9 329 287 273 259 326 12 267 220 143 85 310 274 193 191 252 196 81 11 324 200 112 59 30 16 354 341 333 317 298 286 283 282 277 263 242
271 274 278 287 295 302 302 294 282 284 313 335 336 323 316 316 317 324 329 318 296 277 266 180 115 137 210 290 280 225 194 194 206 227 235 238 251 274 305 326 321 305 298 293 294 304 304 305 290 272 288 20 332 311 326 323 312 305 285 331 56 174 243 241 196 225 234 188 66 354 301 203 147 39 12 3 347 335 329 320 307 291 279 273 263 247 228
267 271 274 282 292 300 300 290 279 279 308 331 333 320 306 306 315 341 346 334 314 248 254 326 88 130 240 294 293 177 197 213 222 228 233 243 252 260 274 289 292 298 297 277 265 278 273 267 274 275 309 7 317 285 292 317 306 278 257 256 222 237 241 255 240 239 237 203 39 9 313 240 268 356 352 345 340 335 330 324 314 303 292 274 248 222 200
261 265 267 275 288 295 295 289 281 277 297 325 327 312 286 265 269 30 17 353 334 316 307 317 330 318 285 211 180 202 208 210 223 230 230 236 243 247 256 267 270 282 296 286 273 264 258 263 286 313 341 343 294 250 241 246 259 262 252 233 226 279 312 347 290 267 292 25 34 27 336 300 311 329 331 330 334 337 336 331 320 308 298 278 245 203 166
256 261 262 267 280 286 289 290 280 270 296 326 311 287 262 232 224 246 20 7 342 320 303 287 272 274 339 109 176 223 220 211 220 229 231 231 231 235 243 252 259 274 289 291 283 271 266 279 301 322 353 347 303 273 252 238 239 240 231 201 62 42 34 21 347 317 320 346 354 350 323 302 303 311 315 318 328 335 336 336 326 313 304 287 257 216 169
249 255 257 263 272 278 282 283 270 251 263 284 274 267 255 218 202 219 278 345 345 328 304 292 284 304 71 94 214 248 264 240 224 218 221 224 224 225 231 238 248 261 269 272 271 276 282 283 280 274 254 241 275 280 263 250 250 218 140 100 39 37 43 27 357 329 315 319 325 320 304 292 293 298 301 309 332 336 332 329 323 314 305 293 273 237 182
244 249 252 256 264 270 272 268 257 244 247 250 247 256 270 131 127 188 264 310 329 318 293 285 286 265 145 157 219 299 317 289 237 211 209 213 215 214 217 225 234 237 243 252 253 267 280 274 263 267 245 201 231 265 266 258 255 220 143 122 315 340 1 346 322 313 312 312 310 303 294 289 293 297 301 316 330 331 324 317 314 308 296 285 274 244 198
237 243 246 245 251 261 261 254 245 239 238 241 249 271 300 318 316 273 276 295 305 298 295 292 269 245 150 147 168 313 312 272 223 188 178 184 194 196 196 209 226 218 230 262 261 249 259 259 255 265 255 191 200 247 254 249 250 245 230 255 279 296 311 310 306 304 302 300 300 297 292 294 307 314 315 316 318 319 313 309 309 305 289 272 254 230 207
228 233 238 238 243 251 249 242 242 243 247 253 257 264 277 285 279 269 271 284 286 285 305 307 273 248 89 141 146 55 319 264 210 179 164 162 180 191 181 194 224 205 192 224 243 234 244 251 250 255 250 212 218 251 251 243 248 255 259 265 276 292 303 303 298 291 284 283 289 291 294 303 310 309 306 305 304 305 306 305 305 301 286 260 234 218 203
221 223 228 231 237 242 239 232 231 237 256 267 265 262 268 277 276 265 255 264 274 267 267 285 280 280 142 176 154 66 342 296 214 192 147 138 178 225 182 161 192 209 193 202 221 235 240 245 249 250 238 213 219 240 247 246 249 255 261 266 273 285 290 284 277 278 288 298 301 299 298 299 298 296 296 294 293 294 298 300 299 294 282 259 237 220 203
213 213 218 224 229 229 225 223 221 224 245 258 257 267 326 312 295 254 224 234 262 256 200 231 279 290 244 197 151 74 349 313 279 317 341 133 183 236 201 161 198 209 183 192 223 238 234 233 244 250 239 222 220 226 238 247 245 241 246 255 261 270 277 279 284 298 308 308 303 298 295 292 291 292 292 293 293 293 295 295 293 289 281 266 247 229 214
201 207 214 217 218 217 215 216 217 221 237 249 233 218 303 326 29 152 197 220 261 287 309 276 270 293 299 261 102 64 329 283 185 191 261 196 195 210 209 222 228 182 142 199 233 238 228 220 233 242 235 230 230 229 235 247 240 223 228 245 253 264 280 292 301 304 305 303 300 298 297 295 294 293 291 292 293 292 290 289 286 283 279 271 254 230 213
191 198 204 201 205 214 213 209 212 218 224 213 144 187 255 218 155 167 185 203 226 249 275 276 272 328 332 323 50 41 306 266 126 184 218 213 216 203 212 240 243 147 180 230 233 233 228 214 227 245 244 240 245 245 239 241 239 230 240 258 265 270 281 292 298 299 299 298 296 296 298 300 302 303 300 297 296 294 292 289 286 283 280 276 265 240 215
185 188 193 195 203 213 207 196 202 208 203 192 200 220 220 209 206 197 182 181 194 203 237 262 272 37 293 277 39 25 334 298 170 212 191 169 251 214 206 236 253 155 263 253 217 201 228 219 223 248 254 250 254 256 246 237 240 247 255 261 262 269 278 283 287 292 295 296 297 301 306 308 309 308 305 300 297 294 292 288 283 279 277 277 276 260 228
180 181 191 205 211 205 146 156 175 177 171 185 222 233 197 187 238 222 177 175 191 188 211 234 231 180 252 244 103 64 -0 299 254 210 117 101 281 221 196 240 231 228 272 268 171 161 231 240 231 245 255 253 251 248 239 236 247 256 260 263 266 276 282 282 283 287 290 293 297 301 303 301 301 301 300 297 292 288 285 284 280 274 269 270 278 272 244
178 180 196 210 208 153 106 126 151 162 167 188 221 242 202 191 216 216 172 196 218 201 192 214 176 114 299 283 151 89 28 325 308 342 35 64 37 356 280 264 0 290 270 264 151 152 250 265 256 254 265 276 269 206 202 234 250 248 248 272 291 293 290 289 288 290 292 294 296 297 296 294 296 298 297 294 291 286 281 280 278 274 267 261 258 254 233
180 191 201 190 164 142 126 132 151 166 176 187 198 208 201 191 194 214 222 216 206 177 157 196 188 155 165 249 256 93 55 0 340 319 303 8 44 300 262 251 34 287 264 270 50 290 264 268 267 267 281 322 40 91 191 248 258 261 297 314 316 311 304 299 294 290 290 291 294 297 298 298 299 298 294 291 290 286 280 278 279 278 275 264 237 192 146
179 184 169 125 127 137 143 151 166 176 177 180 189 194 200 191 183 203 217 219 204 152 161 198 207 126 129 188 243 70 49 350 314 266 264 0 54 289 274 295 303 263 268 354 7 290 263 266 272 285 347 40 46 299 300 316 334 337 330 329 329 321 310 301 292 285 286 288 293 301 304 302 301 298 292 287 282 276 272 273 276 279 273 235 178 148 131
163 166 159 135 131 143 158 168 182 187 166 140 154 170 184 203 212 205 200 202 216 177 167 170 145 104 127 170 188 75 65 335 303 272 276 320 0 280 268 256 245 263 318 358 309 265 263 272 277 301 6 8 320 333 348 349 344 334 327 326 322 314 308 302 291 284 284 286 290 299 303 303 301 297 290 281 272 265 259 253 246 232 186 160 150 133 120
128 131 162 159 146 156 163 151 159 187 173 163 181 190 184 187 197 195 182 171 176 175 163 164 181 175 152 147 174 130 114 115 262 242 238 279 292 274 263 254 265 296 318 306 269 261 268 272 274 293 322 325 330 346 348 340 330 324 323 322 317 311 307 302 294 288 285 285 289 297 303 304 303 297 287 275 263 251 226 174 148 143 137 130 118 105 100
124 120 170 145 123 165 198 147 156 211 195 181 196 206 191 178 182 176 146 124 144 152 148 159 185 180 139 124 189 219 96 130 223 214 151 281 266 261 266 285 309 308 292 274 266 268 271 272 276 295 327 344 344 340 335 329 325 321 319 318 316 311 306 302 299 294 290 288 290 296 301 302 300 295 287 276 258 226 174 143 135 135 133 125 114 106 103
130 134 178 146 126 203 227 162 163 209 210 190 193 201 198 192 167 127 106 111 135 135 133 150 190 193 161 143 155 105 58 317 242 197 98 275 266 266 298 299 293 280 269 268 268 264 267 279 295 322 356 356 336 324 322 320 317 314 310 308 306 304 300 296 292 290 289 289 290 295 302 303 296 285 276 263 222 164 145 137 133 128 123 117 114 114 114
128 158 226 182 154 190 216 198 197 225 218 183 181 181 168 152 120 111 126 164 161 138 142 165 195 204 154 109 162 141 113 274 264 213 168 268 276 291 278 264 260 257 263 270 272 271 281 302 328 357 9 348 323 316 315 310 305 302 301 297 293 292 293 293 291 290 289 288 286 290 299 301 289 267 237 196 162 145 139 137 132 122 113 109 112 115 115
134 192 234 202 169 190 205 204 207 218 196 182 185 170 152 156 154 144 149 162 151 149 173 190 202 187 142 84 303 284 104 279 263 233 191 283 287 278 255 257 257 254 259 268 279 293 309 332 353 358 346 326 314 310 307 303 300 298 295 291 289 288 287 288 289 288 286 285 288 292 297 301 294 256 181 156 145 137 133 130 127 121 118 120 127 133 131
201 226 235 229 208 204 200 197 199 193 174 176 175 170 173 179 165 144 142 145 129 113 116 121 267 253 118 62 316 284 243 244 259 244 199 242 251 255 271 274 271 268 275 293 309 319 328 343 347 332 317 309 304 300 299 299 299 296 291 289 290 288 281 275 273 275 272 268 276 290 299 323 15 156 166 152 139 133 132 131 129 128 128 131 137 141 138
266 238 236 241 224 196 188 194 203 195 182 178 172 175 189 186 158 138 147 156 138 122 115 111 105 323 48 341 282 268 248 241 255 257 257 259 260 263 269 271 274 286 309 329 336 332 326 323 315 304 297 295 293 294 296 298 296 293 289 287 285 280 274 268 263 259 256 249 250 283 311 19 79 106 133 126 120 129 139 138 131 125 125 129 136 140 139
241 237 241 254 252 188 186 196 199 187 181 179 169 172 190 187 157 147 160 165 161 174 188 166 115 140 212 219 248 278 288 247 243 248 256 264 264 260 263 273 290 312 323 327 324 314 306 302 297 292 292 293 293 293 296 296 294 292 289 284 279 274 271 266 258 247 237 225 216 246 293 348 29 33 57 121 136 151 159 149 133 121 121 130 140 145 146
214 223 212 190 172 212 209 199 180 160 163 166 155 158 175 172 146 147 168 189 197 198 177 147 166 224 229 226 249 292 287 252 253 256 258 263 265 266 275 293 314 322 317 311 306 300 299 302 302 302 304 305 302 301 301 299 297 296 291 286 284 282 277 272 270 264 252 244 243 244 243 255 319 289 256 206 180 178 173 159 151 145 139 139 143 145 146